Year,Month,Day,Hour,Minute,Value (Times are PST for temperature in C)
2013,04,28,00,00,9.90
2013,04,28,00,01,9.90
2013,04,28,00,02,9.90
2013,04,28,00,03,9.90
2013,04,28,00,04,9.90
2013,04,28,00,05,9.90
2013,04,28,00,06,10.00
2013,04,28,00,07,10.00
2013,04,28,00,08,10.10
2013,04,28,00,09,10.10
2013,04,28,00,10,10.10
2013,04,28,00,11,10.10
2013,04,28,00,12,10.10
2013,04,28,00,13,10.10
2013,04,28,00,14,10.10
2013,04,28,00,15,10.10
2013,04,28,00,16,10.10
2013,04,28,00,17,10.10
2013,04,28,00,18,10.10
2013,04,28,00,19,10.00
2013,04,28,00,20,10.00
2013,04,28,00,21,10.00
2013,04,28,00,22,10.00
2013,04,28,00,23,10.00
2013,04,28,00,24,10.00
2013,04,28,00,25,10.00
2013,04,28,00,26,10.00
2013,04,28,00,27,10.00
2013,04,28,00,28,10.10
2013,04,28,00,29,10.10
2013,04,28,00,30,10.10
2013,04,28,00,31,10.10
2013,04,28,00,32,10.10
2013,04,28,00,33,10.10
2013,04,28,00,34,10.10
2013,04,28,00,35,10.10
2013,04,28,00,36,10.10
2013,04,28,00,37,10.00
2013,04,28,00,38,10.00
2013,04,28,00,39,10.00
2013,04,28,00,40,10.00
2013,04,28,00,41,10.00
2013,04,28,00,42,10.00
2013,04,28,00,43,10.00
2013,04,28,00,44,10.00
2013,04,28,00,45,9.90
2013,04,28,00,46,9.90
2013,04,28,00,47,9.90
2013,04,28,00,48,9.90
2013,04,28,00,49,9.90
2013,04,28,00,50,9.90
2013,04,28,00,51,9.90
2013,04,28,00,52,9.90
2013,04,28,00,53,9.90
2013,04,28,00,54,9.90
2013,04,28,00,55,9.90
2013,04,28,00,56,9.90
2013,04,28,00,57,9.90
2013,04,28,00,58,9.90
2013,04,28,00,59,9.90
2013,04,28,01,00,9.90
2013,04,28,01,01,9.90
2013,04,28,01,02,9.90
2013,04,28,01,03,9.90
2013,04,28,01,04,9.90
2013,04,28,01,05,9.90
2013,04,28,01,06,9.90
2013,04,28,01,07,9.80
2013,04,28,01,08,9.80
2013,04,28,01,09,9.80
2013,04,28,01,10,9.80
2013,04,28,01,11,9.80
2013,04,28,01,12,9.80
2013,04,28,01,13,9.70
2013,04,28,01,14,9.70
2013,04,28,01,15,9.70
2013,04,28,01,16,9.70
2013,04,28,01,17,9.70
2013,04,28,01,18,9.60
2013,04,28,01,19,9.60
2013,04,28,01,20,9.60
2013,04,28,01,21,9.60
2013,04,28,01,22,9.60
2013,04,28,01,23,9.60
2013,04,28,01,24,9.60
2013,04,28,01,25,9.60
2013,04,28,01,26,9.60
2013,04,28,01,27,9.60
2013,04,28,01,28,9.60
2013,04,28,01,29,9.60
2013,04,28,01,30,9.60
2013,04,28,01,31,9.60
2013,04,28,01,32,9.50
2013,04,28,01,33,9.50
2013,04,28,01,34,9.50
2013,04,28,01,35,9.50
2013,04,28,01,36,9.40
2013,04,28,01,37,9.40
2013,04,28,01,38,9.40
2013,04,28,01,39,9.40
2013,04,28,01,40,9.30
2013,04,28,01,41,9.30
2013,04,28,01,42,9.30
2013,04,28,01,43,9.30
2013,04,28,01,44,9.30
2013,04,28,01,45,9.30
2013,04,28,01,46,9.30
2013,04,28,01,47,9.30
2013,04,28,01,48,9.30
2013,04,28,01,49,9.30
2013,04,28,01,50,9.20
2013,04,28,01,51,9.20
2013,04,28,01,52,9.20
2013,04,28,01,53,9.20
2013,04,28,01,54,9.20
2013,04,28,01,55,9.20
2013,04,28,01,56,9.20
2013,04,28,01,57,9.20
2013,04,28,01,58,9.20
2013,04,28,01,59,9.20
2013,04,28,02,00,9.20
2013,04,28,02,01,9.10
2013,04,28,02,02,9.10
2013,04,28,02,03,9.10
2013,04,28,02,04,9.10
2013,04,28,02,05,9.10
2013,04,28,02,06,9.10
2013,04,28,02,07,9.10
2013,04,28,02,08,9.10
2013,04,28,02,09,9.10
2013,04,28,02,10,9.10
2013,04,28,02,11,9.10
2013,04,28,02,12,9.10
2013,04,28,02,13,9.10
2013,04,28,02,14,9.10
2013,04,28,02,15,9.10
2013,04,28,02,16,9.20
2013,04,28,02,17,9.20
2013,04,28,02,18,9.20
2013,04,28,02,19,9.20
2013,04,28,02,20,9.20
2013,04,28,02,21,9.20
2013,04,28,02,22,9.20
2013,04,28,02,23,9.20
2013,04,28,02,24,9.20
2013,04,28,02,25,9.20
2013,04,28,02,26,9.20
2013,04,28,02,27,9.20
2013,04,28,02,28,9.20
2013,04,28,02,29,9.20
2013,04,28,02,30,9.20
2013,04,28,02,31,9.20
2013,04,28,02,32,9.30
2013,04,28,02,33,9.30
2013,04,28,02,34,9.30
2013,04,28,02,35,9.30
2013,04,28,02,36,9.30
2013,04,28,02,37,9.30
2013,04,28,02,38,9.30
2013,04,28,02,39,9.30
2013,04,28,02,40,9.30
2013,04,28,02,41,9.30
2013,04,28,02,42,9.30
2013,04,28,02,43,9.30
2013,04,28,02,44,9.30
2013,04,28,02,45,9.30
2013,04,28,02,46,9.30
2013,04,28,02,47,9.30
2013,04,28,02,48,9.30
2013,04,28,02,49,9.30
2013,04,28,02,50,9.30
2013,04,28,02,51,9.30
2013,04,28,02,52,9.30
2013,04,28,02,53,9.20
2013,04,28,02,54,9.20
2013,04,28,02,55,9.20
2013,04,28,02,56,9.20
2013,04,28,02,57,9.20
2013,04,28,02,58,9.20
2013,04,28,02,59,9.20
2013,04,28,03,00,9.20
2013,04,28,03,01,9.20
2013,04,28,03,02,9.20
2013,04,28,03,03,9.20
2013,04,28,03,04,9.20
2013,04,28,03,05,9.20
2013,04,28,03,06,9.20
2013,04,28,03,07,9.20
2013,04,28,03,08,9.30
2013,04,28,03,09,9.30
2013,04,28,03,10,9.30
2013,04,28,03,11,9.30
2013,04,28,03,12,9.30
2013,04,28,03,13,9.30
2013,04,28,03,14,9.30
2013,04,28,03,15,9.30
2013,04,28,03,16,9.30
2013,04,28,03,17,9.30
2013,04,28,03,18,9.30
2013,04,28,03,19,9.30
2013,04,28,03,20,9.30
2013,04,28,03,21,9.30
2013,04,28,03,22,9.30
2013,04,28,03,23,9.20
2013,04,28,03,24,9.20
2013,04,28,03,25,9.20
2013,04,28,03,26,9.20
2013,04,28,03,27,9.20
2013,04,28,03,28,9.20
2013,04,28,03,29,9.20
2013,04,28,03,30,9.10
2013,04,28,03,31,9.10
2013,04,28,03,32,9.10
2013,04,28,03,33,9.10
2013,04,28,03,34,9.10
2013,04,28,03,35,9.10
2013,04,28,03,36,9.10
2013,04,28,03,37,9.20
2013,04,28,03,38,9.20
2013,04,28,03,39,9.20
2013,04,28,03,40,9.20
2013,04,28,03,41,9.20
2013,04,28,03,42,9.10
2013,04,28,03,43,9.10
2013,04,28,03,44,9.10
2013,04,28,03,45,9.10
2013,04,28,03,46,9.10
2013,04,28,03,47,9.10
2013,04,28,03,48,9.10
2013,04,28,03,49,9.20
2013,04,28,03,50,9.20
2013,04,28,03,51,9.20
2013,04,28,03,52,9.20
2013,04,28,03,53,9.20
2013,04,28,03,54,9.20
2013,04,28,03,55,9.20
2013,04,28,03,56,9.20
2013,04,28,03,57,9.20
2013,04,28,03,58,9.10
2013,04,28,03,59,9.10
2013,04,28,04,00,9.10
2013,04,28,04,01,9.10
2013,04,28,04,02,9.00
2013,04,28,04,03,9.00
2013,04,28,04,04,8.90
2013,04,28,04,05,8.80
2013,04,28,04,06,8.70
2013,04,28,04,07,8.60
2013,04,28,04,08,8.50
2013,04,28,04,09,8.50
2013,04,28,04,10,8.40
2013,04,28,04,11,8.30
2013,04,28,04,12,8.20
2013,04,28,04,13,8.10
2013,04,28,04,14,8.00
2013,04,28,04,15,7.90
2013,04,28,04,16,7.80
2013,04,28,04,17,7.80
2013,04,28,04,18,7.70
2013,04,28,04,19,7.70
2013,04,28,04,20,7.70
2013,04,28,04,21,7.70
2013,04,28,04,22,7.60
2013,04,28,04,23,7.60
2013,04,28,04,24,7.60
2013,04,28,04,25,7.50
2013,04,28,04,26,7.50
2013,04,28,04,27,7.50
2013,04,28,04,28,7.40
2013,04,28,04,29,7.40
2013,04,28,04,30,7.30
2013,04,28,04,31,7.30
2013,04,28,04,32,7.20
2013,04,28,04,33,7.20
2013,04,28,04,34,7.20
2013,04,28,04,35,7.20
2013,04,28,04,36,7.10
2013,04,28,04,37,7.10
2013,04,28,04,38,7.10
2013,04,28,04,39,7.10
2013,04,28,04,40,7.00
2013,04,28,04,41,7.00
2013,04,28,04,42,6.90
2013,04,28,04,43,6.90
2013,04,28,04,44,6.90
2013,04,28,04,45,6.80
2013,04,28,04,46,6.80
2013,04,28,04,47,6.80
2013,04,28,04,48,6.70
2013,04,28,04,49,6.70
2013,04,28,04,50,6.70
2013,04,28,04,51,6.60
2013,04,28,04,52,6.60
2013,04,28,04,53,6.60
2013,04,28,04,54,6.60
2013,04,28,04,55,6.50
2013,04,28,04,56,6.50
2013,04,28,04,57,6.40
2013,04,28,04,58,6.40
2013,04,28,04,59,6.40
2013,04,28,05,00,6.40
2013,04,28,05,01,6.40
2013,04,28,05,02,6.40
2013,04,28,05,03,6.30
2013,04,28,05,04,6.30
2013,04,28,05,05,6.30
2013,04,28,05,06,6.30
2013,04,28,05,07,6.30
2013,04,28,05,08,6.30
2013,04,28,05,09,6.30
2013,04,28,05,10,6.30
2013,04,28,05,11,6.30
2013,04,28,05,12,6.20
2013,04,28,05,13,6.20
2013,04,28,05,14,6.20
2013,04,28,05,15,6.20
2013,04,28,05,16,6.20
2013,04,28,05,17,6.10
2013,04,28,05,18,6.10
2013,04,28,05,19,6.00
2013,04,28,05,20,5.90
2013,04,28,05,21,5.90
2013,04,28,05,22,5.90
2013,04,28,05,23,5.90
2013,04,28,05,24,5.80
2013,04,28,05,25,5.80
2013,04,28,05,26,5.80
2013,04,28,05,27,5.80
2013,04,28,05,28,5.80
2013,04,28,05,29,5.70
2013,04,28,05,30,5.70
2013,04,28,05,31,5.70
2013,04,28,05,32,5.70
2013,04,28,05,33,5.70
2013,04,28,05,34,5.70
2013,04,28,05,35,5.70
2013,04,28,05,36,5.70
2013,04,28,05,37,5.70
2013,04,28,05,38,5.70
2013,04,28,05,39,5.70
2013,04,28,05,40,5.70
2013,04,28,05,41,5.60
2013,04,28,05,42,5.60
2013,04,28,05,43,5.60
2013,04,28,05,44,5.60
2013,04,28,05,45,5.60
2013,04,28,05,46,5.60
2013,04,28,05,47,5.60
2013,04,28,05,48,5.60
2013,04,28,05,49,5.60
2013,04,28,05,50,5.60
2013,04,28,05,51,5.60
2013,04,28,05,52,5.50
2013,04,28,05,53,5.50
2013,04,28,05,54,5.50
2013,04,28,05,55,5.40
2013,04,28,05,56,5.40
2013,04,28,05,57,5.40
2013,04,28,05,58,5.40
2013,04,28,05,59,5.40
2013,04,28,06,00,5.40
2013,04,28,06,01,5.40
2013,04,28,06,02,5.40
2013,04,28,06,03,5.30
2013,04,28,06,04,5.30
2013,04,28,06,05,5.30
2013,04,28,06,06,5.30
2013,04,28,06,07,5.30
2013,04,28,06,08,5.30
2013,04,28,06,09,5.30
2013,04,28,06,10,5.30
2013,04,28,06,11,5.30
2013,04,28,06,12,5.30
2013,04,28,06,13,5.30
2013,04,28,06,14,5.30
2013,04,28,06,15,5.30
2013,04,28,06,16,5.30
2013,04,28,06,17,5.30
2013,04,28,06,18,5.30
2013,04,28,06,19,5.20
2013,04,28,06,20,5.20
2013,04,28,06,21,5.20
2013,04,28,06,22,5.20
2013,04,28,06,23,5.20
2013,04,28,06,24,5.20
2013,04,28,06,25,5.20
2013,04,28,06,26,5.20
2013,04,28,06,27,5.20
2013,04,28,06,28,5.20
2013,04,28,06,29,5.20
2013,04,28,06,30,5.20
2013,04,28,06,31,5.20
2013,04,28,06,32,5.20
2013,04,28,06,33,5.20
2013,04,28,06,34,5.20
2013,04,28,06,35,5.20
2013,04,28,06,36,5.20
2013,04,28,06,37,5.20
2013,04,28,06,38,5.20
2013,04,28,06,39,5.20
2013,04,28,06,40,5.20
2013,04,28,06,41,5.20
2013,04,28,06,42,5.20
2013,04,28,06,43,5.20
2013,04,28,06,44,5.20
2013,04,28,06,45,5.20
2013,04,28,06,46,5.20
2013,04,28,06,47,5.20
2013,04,28,06,48,5.20
2013,04,28,06,49,5.20
2013,04,28,06,50,5.20
2013,04,28,06,51,5.20
2013,04,28,06,52,5.20
2013,04,28,06,53,5.20
2013,04,28,06,54,5.30
2013,04,28,06,55,5.30
2013,04,28,06,56,5.30
2013,04,28,06,57,5.30
2013,04,28,06,58,5.30
2013,04,28,06,59,5.30
2013,04,28,07,00,5.30
2013,04,28,07,01,5.30
2013,04,28,07,02,5.30
2013,04,28,07,03,5.30
2013,04,28,07,04,5.30
2013,04,28,07,05,5.30
2013,04,28,07,06,5.30
2013,04,28,07,07,5.30
2013,04,28,07,08,5.30
2013,04,28,07,09,5.30
2013,04,28,07,10,5.30
2013,04,28,07,11,5.40
2013,04,28,07,12,5.40
2013,04,28,07,13,5.40
2013,04,28,07,14,5.40
2013,04,28,07,15,5.40
2013,04,28,07,16,5.40
2013,04,28,07,17,5.40
2013,04,28,07,18,5.40
2013,04,28,07,19,5.40
2013,04,28,07,20,5.40
2013,04,28,07,21,5.40
2013,04,28,07,22,5.40
2013,04,28,07,23,5.50
2013,04,28,07,24,5.50
2013,04,28,07,25,5.50
2013,04,28,07,26,5.50
2013,04,28,07,27,5.50
2013,04,28,07,28,5.50
2013,04,28,07,29,5.50
2013,04,28,07,30,5.50
2013,04,28,07,31,5.50
2013,04,28,07,32,5.60
2013,04,28,07,33,5.60
2013,04,28,07,34,5.70
2013,04,28,07,35,5.70
2013,04,28,07,36,5.80
2013,04,28,07,37,5.90
2013,04,28,07,38,6.00
2013,04,28,07,39,6.10
2013,04,28,07,40,6.10
2013,04,28,07,41,6.20
2013,04,28,07,42,6.30
2013,04,28,07,43,6.30
2013,04,28,07,44,6.40
2013,04,28,07,45,6.50
2013,04,28,07,46,6.50
2013,04,28,07,47,6.60
2013,04,28,07,48,6.70
2013,04,28,07,49,6.80
2013,04,28,07,50,6.90
2013,04,28,07,51,7.00
2013,04,28,07,52,7.10
2013,04,28,07,53,7.20
2013,04,28,07,54,7.20
2013,04,28,07,55,7.30
2013,04,28,07,56,7.40
2013,04,28,07,57,7.50
2013,04,28,07,58,7.70
2013,04,28,07,59,7.80
2013,04,28,08,00,7.90
2013,04,28,08,01,8.00
2013,04,28,08,02,8.10
2013,04,28,08,03,8.20
2013,04,28,08,04,8.30
2013,04,28,08,05,8.40
2013,04,28,08,06,8.50
2013,04,28,08,07,8.60
2013,04,28,08,08,8.70
2013,04,28,08,09,8.80
2013,04,28,08,10,8.90
2013,04,28,08,11,9.00
2013,04,28,08,12,9.20
2013,04,28,08,13,9.20
2013,04,28,08,14,9.30
2013,04,28,08,15,9.40
2013,04,28,08,16,9.50
2013,04,28,08,17,9.50
2013,04,28,08,18,9.60
2013,04,28,08,19,9.70
2013,04,28,08,20,9.70
2013,04,28,08,21,9.70
2013,04,28,08,22,9.80
2013,04,28,08,23,9.80
2013,04,28,08,24,9.80
2013,04,28,08,25,9.90
2013,04,28,08,26,9.90
2013,04,28,08,27,9.90
2013,04,28,08,28,10.00
2013,04,28,08,29,10.00
2013,04,28,08,30,10.10
2013,04,28,08,31,10.10
2013,04,28,08,32,10.10
2013,04,28,08,33,10.20
2013,04,28,08,34,10.20
2013,04,28,08,35,10.20
2013,04,28,08,36,10.30
2013,04,28,08,37,10.30
2013,04,28,08,38,10.30
2013,04,28,08,39,10.40
2013,04,28,08,40,10.40
2013,04,28,08,41,10.40
2013,04,28,08,42,10.50
2013,04,28,08,43,10.50
2013,04,28,08,44,10.50
2013,04,28,08,45,10.50
2013,04,28,08,46,10.50
2013,04,28,08,47,10.40
2013,04,28,08,48,10.40
2013,04,28,08,49,10.40
2013,04,28,08,50,10.40
2013,04,28,08,51,10.40
2013,04,28,08,52,10.50
2013,04,28,08,53,10.50
2013,04,28,08,54,10.60
2013,04,28,08,55,10.60
2013,04,28,08,56,10.70
2013,04,28,08,57,10.80
2013,04,28,08,58,10.80
2013,04,28,08,59,10.80
2013,04,28,09,00,10.90
2013,04,28,09,01,10.90
2013,04,28,09,02,10.90
2013,04,28,09,03,10.90
2013,04,28,09,04,11.00
2013,04,28,09,05,11.00
2013,04,28,09,06,11.10
2013,04,28,09,07,11.10
2013,04,28,09,08,11.10
2013,04,28,09,09,11.10
2013,04,28,09,10,11.10
2013,04,28,09,11,11.00
2013,04,28,09,12,11.00
2013,04,28,09,13,10.90
2013,04,28,09,14,10.90
2013,04,28,09,15,10.90
2013,04,28,09,16,10.90
2013,04,28,09,17,10.90
2013,04,28,09,18,10.90
2013,04,28,09,19,10.90
2013,04,28,09,20,10.90
2013,04,28,09,21,10.90
2013,04,28,09,22,10.90
2013,04,28,09,23,10.90
2013,04,28,09,24,10.90
2013,04,28,09,25,10.80
2013,04,28,09,26,10.80
2013,04,28,09,27,10.80
2013,04,28,09,28,10.80
2013,04,28,09,29,10.80
2013,04,28,09,30,10.80
2013,04,28,09,31,10.80
2013,04,28,09,32,10.80
2013,04,28,09,33,10.80
2013,04,28,09,34,10.80
2013,04,28,09,35,10.80
2013,04,28,09,36,10.80
2013,04,28,09,37,10.80
2013,04,28,09,38,10.80
2013,04,28,09,39,10.80
2013,04,28,09,40,10.80
2013,04,28,09,41,10.80
2013,04,28,09,42,10.80
2013,04,28,09,43,10.80
2013,04,28,09,44,10.90
2013,04,28,09,45,10.90
2013,04,28,09,46,10.90
2013,04,28,09,47,10.90
2013,04,28,09,48,10.90
2013,04,28,09,49,11.00
2013,04,28,09,50,11.00
2013,04,28,09,51,11.00
2013,04,28,09,52,11.10
2013,04,28,09,53,11.10
2013,04,28,09,54,11.10
2013,04,28,09,55,11.20
2013,04,28,09,56,11.20
2013,04,28,09,57,11.20
2013,04,28,09,58,11.30
2013,04,28,09,59,11.30
2013,04,28,10,00,11.30
2013,04,28,10,01,11.30
2013,04,28,10,02,11.30
2013,04,28,10,03,11.30
2013,04,28,10,04,11.30
2013,04,28,10,05,11.30
2013,04,28,10,06,11.30
2013,04,28,10,07,11.30
2013,04,28,10,08,11.30
2013,04,28,10,09,11.40
2013,04,28,10,10,11.40
2013,04,28,10,11,11.40
2013,04,28,10,12,11.50
2013,04,28,10,13,11.50
2013,04,28,10,14,11.60
2013,04,28,10,15,11.60
2013,04,28,10,16,11.70
2013,04,28,10,17,11.80
2013,04,28,10,18,11.80
2013,04,28,10,19,11.80
2013,04,28,10,20,11.80
2013,04,28,10,21,11.80
2013,04,28,10,22,11.80
2013,04,28,10,23,11.80
2013,04,28,10,24,11.90
2013,04,28,10,25,11.90
2013,04,28,10,26,12.00
2013,04,28,10,27,12.10
2013,04,28,10,28,12.10
2013,04,28,10,29,12.10
2013,04,28,10,30,12.00
2013,04,28,10,31,12.00
2013,04,28,10,32,12.00
2013,04,28,10,33,12.00
2013,04,28,10,34,12.00
2013,04,28,10,35,12.00
2013,04,28,10,36,12.00
2013,04,28,10,37,12.00
2013,04,28,10,38,12.10
2013,04,28,10,39,12.10
2013,04,28,10,40,12.10
2013,04,28,10,41,12.10
2013,04,28,10,42,12.10
2013,04,28,10,43,12.10
2013,04,28,10,44,12.10
2013,04,28,10,45,12.00
2013,04,28,10,46,12.00
2013,04,28,10,47,12.00
2013,04,28,10,48,12.00
2013,04,28,10,49,12.10
2013,04,28,10,50,12.10
2013,04,28,10,51,12.10
2013,04,28,10,52,12.20
2013,04,28,10,53,12.20
2013,04,28,10,54,12.30
2013,04,28,10,55,12.30
2013,04,28,10,56,12.30
2013,04,28,10,57,12.30
2013,04,28,10,58,12.20
2013,04,28,10,59,12.30
2013,04,28,11,00,12.30
2013,04,28,11,01,12.30
2013,04,28,11,02,12.30
2013,04,28,11,03,12.30
2013,04,28,11,04,12.30
2013,04,28,11,05,12.30
2013,04,28,11,06,12.30
2013,04,28,11,07,12.30
2013,04,28,11,08,12.30
2013,04,28,11,09,12.30
2013,04,28,11,10,12.30
2013,04,28,11,11,12.30
2013,04,28,11,12,12.30
2013,04,28,11,13,12.30
2013,04,28,11,14,12.30
2013,04,28,11,15,12.40
2013,04,28,11,16,12.40
2013,04,28,11,17,12.40
2013,04,28,11,18,12.40
2013,04,28,11,19,12.40
2013,04,28,11,20,12.40
2013,04,28,11,21,12.40
2013,04,28,11,22,12.50
2013,04,28,11,23,12.50
2013,04,28,11,24,12.60
2013,04,28,11,25,12.60
2013,04,28,11,26,12.50
2013,04,28,11,27,12.50
2013,04,28,11,28,12.50
2013,04,28,11,29,12.50
2013,04,28,11,30,12.50
2013,04,28,11,31,12.50
2013,04,28,11,32,12.60
2013,04,28,11,33,12.60
2013,04,28,11,34,12.60
2013,04,28,11,35,12.60
2013,04,28,11,36,12.60
2013,04,28,11,37,12.70
2013,04,28,11,38,12.70
2013,04,28,11,39,12.70
2013,04,28,11,40,12.70
2013,04,28,11,41,12.80
2013,04,28,11,42,12.80
2013,04,28,11,43,12.80
2013,04,28,11,44,12.80
2013,04,28,11,45,12.80
2013,04,28,11,46,12.80
2013,04,28,11,47,12.90
2013,04,28,11,48,12.90
2013,04,28,11,49,12.90
2013,04,28,11,50,12.90
2013,04,28,11,51,12.90
2013,04,28,11,52,13.00
2013,04,28,11,53,13.00
2013,04,28,11,54,13.10
2013,04,28,11,55,13.10
2013,04,28,11,56,13.10
2013,04,28,11,57,13.20
2013,04,28,11,58,13.30
2013,04,28,11,59,13.40
2013,04,28,12,00,13.50
2013,04,28,12,01,13.70
2013,04,28,12,02,13.70
2013,04,28,12,03,13.70
2013,04,28,12,04,13.70
2013,04,28,12,05,13.60
2013,04,28,12,06,13.60
2013,04,28,12,07,13.60
2013,04,28,12,08,13.60
2013,04,28,12,09,13.50
2013,04,28,12,10,13.50
2013,04,28,12,11,13.40
2013,04,28,12,12,13.40
2013,04,28,12,13,13.40
2013,04,28,12,14,13.40
2013,04,28,12,15,13.40
2013,04,28,12,16,13.50
2013,04,28,12,17,13.60
2013,04,28,12,18,13.60
2013,04,28,12,19,13.60
2013,04,28,12,20,13.70
2013,04,28,12,21,13.60
2013,04,28,12,22,13.60
2013,04,28,12,23,13.60
2013,04,28,12,24,13.60
2013,04,28,12,25,13.60
2013,04,28,12,26,13.60
2013,04,28,12,27,13.60
2013,04,28,12,28,13.60
2013,04,28,12,29,13.60
2013,04,28,12,30,13.60
2013,04,28,12,31,13.60
2013,04,28,12,32,13.50
2013,04,28,12,33,13.50
2013,04,28,12,34,13.50
2013,04,28,12,35,13.50
2013,04,28,12,36,13.40
2013,04,28,12,37,13.40
2013,04,28,12,38,13.40
2013,04,28,12,39,13.40
2013,04,28,12,40,13.40
2013,04,28,12,41,13.40
2013,04,28,12,42,13.50
2013,04,28,12,43,13.60
2013,04,28,12,44,13.70
2013,04,28,12,45,13.80
2013,04,28,12,46,13.80
2013,04,28,12,47,13.80
2013,04,28,12,48,13.80
2013,04,28,12,49,13.80
2013,04,28,12,50,13.80
2013,04,28,12,51,13.70
2013,04,28,12,52,13.70
2013,04,28,12,53,13.70
2013,04,28,12,54,13.80
2013,04,28,12,55,13.80
2013,04,28,12,56,13.90
2013,04,28,12,57,13.90
2013,04,28,12,58,13.90
2013,04,28,12,59,13.80
2013,04,28,13,00,13.90
2013,04,28,13,01,13.90
2013,04,28,13,02,14.00
2013,04,28,13,03,14.10
2013,04,28,13,04,14.10
2013,04,28,13,05,14.00
2013,04,28,13,06,13.80
2013,04,28,13,07,13.60
2013,04,28,13,08,13.50
2013,04,28,13,09,13.40
2013,04,28,13,10,13.40
2013,04,28,13,11,13.40
2013,04,28,13,12,13.40
2013,04,28,13,13,13.40
2013,04,28,13,14,13.40
2013,04,28,13,15,13.50
2013,04,28,13,16,13.50
2013,04,28,13,17,13.40
2013,04,28,13,18,13.50
2013,04,28,13,19,13.50
2013,04,28,13,20,13.60
2013,04,28,13,21,13.70
2013,04,28,13,22,13.60
2013,04,28,13,23,13.60
2013,04,28,13,24,13.60
2013,04,28,13,25,13.60
2013,04,28,13,26,13.60
2013,04,28,13,27,13.60
2013,04,28,13,28,13.70
2013,04,28,13,29,13.70
2013,04,28,13,30,13.70
2013,04,28,13,31,13.70
2013,04,28,13,32,13.80
2013,04,28,13,33,13.80
2013,04,28,13,34,13.90
2013,04,28,13,35,13.90
2013,04,28,13,36,14.00
2013,04,28,13,37,14.00
2013,04,28,13,38,13.90
2013,04,28,13,39,13.90
2013,04,28,13,40,13.90
2013,04,28,13,41,13.80
2013,04,28,13,42,13.80
2013,04,28,13,43,13.80
2013,04,28,13,44,13.80
2013,04,28,13,45,13.80
2013,04,28,13,46,13.80
2013,04,28,13,47,13.80
2013,04,28,13,48,13.70
2013,04,28,13,49,13.70
2013,04,28,13,50,13.70
2013,04,28,13,51,13.70
2013,04,28,13,52,13.60
2013,04,28,13,53,13.60
2013,04,28,13,54,13.50
2013,04,28,13,55,13.50
2013,04,28,13,56,13.40
2013,04,28,13,57,13.40
2013,04,28,13,58,13.40
2013,04,28,13,59,13.40
2013,04,28,14,00,13.30
2013,04,28,14,01,13.30
2013,04,28,14,02,13.30
2013,04,28,14,03,13.20
2013,04,28,14,04,13.20
2013,04,28,14,05,13.10
2013,04,28,14,06,13.10
2013,04,28,14,07,13.10
2013,04,28,14,08,13.00
2013,04,28,14,09,13.00
2013,04,28,14,10,13.00
2013,04,28,14,11,13.00
2013,04,28,14,12,13.00
2013,04,28,14,13,13.00
2013,04,28,14,14,13.10
2013,04,28,14,15,13.10
2013,04,28,14,16,13.10
2013,04,28,14,17,13.10
2013,04,28,14,18,13.00
2013,04,28,14,19,13.00
2013,04,28,14,20,13.00
2013,04,28,14,21,13.00
2013,04,28,14,22,12.90
2013,04,28,14,23,12.90
2013,04,28,14,24,12.90
2013,04,28,14,25,12.80
2013,04,28,14,26,12.80
2013,04,28,14,27,12.80
2013,04,28,14,28,12.80
2013,04,28,14,29,12.70
2013,04,28,14,30,12.70
2013,04,28,14,31,12.70
2013,04,28,14,32,12.60
2013,04,28,14,33,12.60
2013,04,28,14,34,12.60
2013,04,28,14,35,12.60
2013,04,28,14,36,12.70
2013,04,28,14,37,12.70
2013,04,28,14,38,12.70
2013,04,28,14,39,12.70
2013,04,28,14,40,12.70
2013,04,28,14,41,12.70
2013,04,28,14,42,12.70
2013,04,28,14,43,12.70
2013,04,28,14,44,12.80
2013,04,28,14,45,12.70
2013,04,28,14,46,12.70
2013,04,28,14,47,12.70
2013,04,28,14,48,12.70
2013,04,28,14,49,12.70
2013,04,28,14,50,12.80
2013,04,28,14,51,12.80
2013,04,28,14,52,12.70
2013,04,28,14,53,12.70
2013,04,28,14,54,12.70
2013,04,28,14,55,12.60
2013,04,28,14,56,12.60
2013,04,28,14,57,12.60
2013,04,28,14,58,12.50
2013,04,28,14,59,12.50
2013,04,28,15,00,12.50
2013,04,28,15,01,12.50
2013,04,28,15,02,12.50
2013,04,28,15,03,12.50
2013,04,28,15,04,12.40
2013,04,28,15,05,12.40
2013,04,28,15,06,12.40
2013,04,28,15,07,12.40
2013,04,28,15,08,12.40
2013,04,28,15,09,12.40
2013,04,28,15,10,12.40
2013,04,28,15,11,12.40
2013,04,28,15,12,12.40
2013,04,28,15,13,12.40
2013,04,28,15,14,12.40
2013,04,28,15,15,12.50
2013,04,28,15,16,12.50
2013,04,28,15,17,12.50
2013,04,28,15,18,12.50
2013,04,28,15,19,12.50
2013,04,28,15,20,12.40
2013,04,28,15,21,12.40
2013,04,28,15,22,12.40
2013,04,28,15,23,12.50
2013,04,28,15,24,12.50
2013,04,28,15,25,12.60
2013,04,28,15,26,12.60
2013,04,28,15,27,12.60
2013,04,28,15,28,12.60
2013,04,28,15,29,12.50
2013,04,28,15,30,12.50
2013,04,28,15,31,12.50
2013,04,28,15,32,12.50
2013,04,28,15,33,12.50
2013,04,28,15,34,12.40
2013,04,28,15,35,12.40
2013,04,28,15,36,12.30
2013,04,28,15,37,12.30
2013,04,28,15,38,12.30
2013,04,28,15,39,12.30
2013,04,28,15,40,12.30
2013,04,28,15,41,12.30
2013,04,28,15,42,12.30
2013,04,28,15,43,12.30
2013,04,28,15,44,12.20
2013,04,28,15,45,12.10
2013,04,28,15,46,12.10
2013,04,28,15,47,12.00
2013,04,28,15,48,12.00
2013,04,28,15,49,11.90
2013,04,28,15,50,11.90
2013,04,28,15,51,11.90
2013,04,28,15,52,11.90
2013,04,28,15,53,11.80
2013,04,28,15,54,11.80
2013,04,28,15,55,11.80
2013,04,28,15,56,11.80
2013,04,28,15,57,11.80
2013,04,28,15,58,11.80
2013,04,28,15,59,11.80
2013,04,28,16,00,11.80
2013,04,28,16,01,11.80
2013,04,28,16,02,11.90
2013,04,28,16,03,11.90
2013,04,28,16,04,11.90
2013,04,28,16,05,11.90
2013,04,28,16,06,11.90
2013,04,28,16,07,11.90
2013,04,28,16,08,11.80
2013,04,28,16,09,11.80
2013,04,28,16,10,11.80
2013,04,28,16,11,11.80
2013,04,28,16,12,11.80
2013,04,28,16,13,11.80
2013,04,28,16,14,11.90
2013,04,28,16,15,11.90
2013,04,28,16,16,11.90
2013,04,28,16,17,11.90
2013,04,28,16,18,11.90
2013,04,28,16,19,11.90
2013,04,28,16,20,11.90
2013,04,28,16,21,11.90
2013,04,28,16,22,11.90
2013,04,28,16,23,11.80
2013,04,28,16,24,11.80
2013,04,28,16,25,11.80
2013,04,28,16,26,11.80
2013,04,28,16,27,11.80
2013,04,28,16,28,11.80
2013,04,28,16,29,11.80
2013,04,28,16,30,11.80
2013,04,28,16,31,11.80
2013,04,28,16,32,11.80
2013,04,28,16,33,11.90
2013,04,28,16,34,11.90
2013,04,28,16,35,11.90
2013,04,28,16,36,12.00
2013,04,28,16,37,12.00
2013,04,28,16,38,12.00
2013,04,28,16,39,12.00
2013,04,28,16,40,12.10
2013,04,28,16,41,12.10
2013,04,28,16,42,12.10
2013,04,28,16,43,12.00
2013,04,28,16,44,12.00
2013,04,28,16,45,11.90
2013,04,28,16,46,11.90
2013,04,28,16,47,11.80
2013,04,28,16,48,11.80
2013,04,28,16,49,11.80
2013,04,28,16,50,11.80
2013,04,28,16,51,11.80
2013,04,28,16,52,11.80
2013,04,28,16,53,11.80
2013,04,28,16,54,11.80
2013,04,28,16,55,11.80
2013,04,28,16,56,11.80
2013,04,28,16,57,11.80
2013,04,28,16,58,11.80
2013,04,28,16,59,11.80
2013,04,28,17,00,11.80
2013,04,28,17,01,11.80
2013,04,28,17,02,11.80
2013,04,28,17,03,11.80
2013,04,28,17,04,11.80
2013,04,28,17,05,11.80
2013,04,28,17,06,11.80
2013,04,28,17,07,11.80
2013,04,28,17,08,11.80
2013,04,28,17,09,11.80
2013,04,28,17,10,11.80
2013,04,28,17,11,11.80
2013,04,28,17,12,11.80
2013,04,28,17,13,11.80
2013,04,28,17,14,11.80
2013,04,28,17,15,11.80
2013,04,28,17,16,11.80
2013,04,28,17,17,11.80
2013,04,28,17,18,11.80
2013,04,28,17,19,11.80
2013,04,28,17,20,11.80
2013,04,28,17,21,11.70
2013,04,28,17,22,11.70
2013,04,28,17,23,11.70
2013,04,28,17,24,11.60
2013,04,28,17,25,11.60
2013,04,28,17,26,11.60
2013,04,28,17,27,11.60
2013,04,28,17,28,11.50
2013,04,28,17,29,11.50
2013,04,28,17,30,11.50
2013,04,28,17,31,11.50
2013,04,28,17,32,11.40
2013,04,28,17,33,11.40
2013,04,28,17,34,11.40
2013,04,28,17,35,11.50
2013,04,28,17,36,11.50
2013,04,28,17,37,11.50
2013,04,28,17,38,11.60
2013,04,28,17,39,11.60